When you browse on this site, cookies collect data to enhance your experience and personalize the content and advertising you see.
Visit our Privacy Policy to learn more. By continuing to use the site, you agree to this use of cookies and data.
  • In Italy
  • List of Countries
  • For 7 days
  • Water Temperature
  • Satellite Maps
  • Weather Map
  • Weather Widgets
  • user-avatar
    Login

    Hourly Weather Ropotamo

    Today, 21 April, Sunday

    Time Temperature Precipitation Wind Pressure Humidity
    00:00 +4°C° 0 mm 3 mps 766 mmHg 67%
    01:00 +4°C° 0 mm 4 mps 766 mmHg 69%
    02:00 +4°C° 0 mm 3 mps 765 mmHg 71%
    03:00 +4°C° 0 mm 3 mps 765 mmHg 73%
    04:00 +3°C° 0 mm 4 mps 765 mmHg 74%
    05:00 +3°C° 0 mm 4 mps 765 mmHg 76%
    06:00 +5°C° 0 mm 4 mps 765 mmHg 71%
    07:00 +7°C° 0 mm 3 mps 765 mmHg 66%
    08:00 +8°C° 0 mm 4 mps 765 mmHg 60%
    09:00 +11°C° 0 mm 4 mps 765 mmHg 56%
    10:00 +12°C° 0 mm 4 mps 765 mmHg 52%
    11:00 +13°C° 0 mm 3 mps 765 mmHg 48%
    12:00 +14°C° 0 mm 3 mps 765 mmHg 48%
    13:00 +14°C° 0 mm 3 mps 764 mmHg 47%
    14:00 +14°C° 0 mm 3 mps 764 mmHg 46%
    15:00 +14°C° 0 mm 3 mps 764 mmHg 48%
    16:00 +13°C° 0 mm 3 mps 764 mmHg 50%
    17:00 +13°C° 0 mm 3 mps 763 mmHg 52%
    18:00 +11°C° 0 mm 3 mps 763 mmHg 57%
    19:00 +10°C° 0 mm 3 mps 763 mmHg 61%
    20:00 +8°C° 0 mm 3 mps 763 mmHg 66%
    21:00 +8°C° 0 mm 3 mps 763 mmHg 66%
    22:00 +7°C° 0 mm 2 mps 763 mmHg 65%
    23:00 +7°C° 0 mm 2 mps 763 mmHg 64%

    Tomorrow, 22 April, Monday

    Time Temperature Precipitation Wind Pressure Humidity
    00:00 +7°C° 0 mm 2 mps 763 mmHg 64%
    01:00 +7°C° 0 mm 2 mps 763 mmHg 64%
    02:00 +7°C° 0 mm 2 mps 763 mmHg 63%
    03:00 +7°C° 0 mm 2 mps 763 mmHg 64%
    04:00 +6°C° 0 mm 2 mps 762 mmHg 65%
    05:00 +6°C° 0 mm 2 mps 762 mmHg 66%
    06:00 +8°C° 0 mm 2 mps 762 mmHg 63%
    07:00 +10°C° 0 mm 2 mps 762 mmHg 60%
    08:00 +12°C° 0 mm 2 mps 763 mmHg 57%
    09:00 +12°C° 0 mm 3 mps 763 mmHg 56%
    10:00 +13°C° 0 mm 4 mps 763 mmHg 55%
    11:00 +14°C° 0 mm 4 mps 763 mmHg 53%
    12:00 +14°C° 0 mm 5 mps 763 mmHg 54%
    13:00 +15°C° 0 mm 6 mps 763 mmHg 54%
    14:00 +15°C° 0 mm 6 mps 763 mmHg 55%
    15:00 +14°C° 0 mm 6 mps 763 mmHg 57%
    16:00 +14°C° 0 mm 6 mps 763 mmHg 58%
    17:00 +13°C° 0 mm 6 mps 763 mmHg 60%
    18:00 +10°C° 0 mm 6 mps 763 mmHg 62%
    19:00 +9°C° 0 mm 5 mps 763 mmHg 64%
    20:00 +8°C° 0 mm 5 mps 764 mmHg 66%
    21:00 +7°C° 0 mm 4 mps 764 mmHg 67%
    22:00 +7°C° 0 mm 4 mps 764 mmHg 69%
    23:00 +6°C° 0 mm 4 mps 764 mmHg 71%

    Day after tomorrow, 23 April, Tuesday

    Time Temperature Precipitation Wind Pressure Humidity
    00:00 +6°C° 0 mm 4 mps 764 mmHg 71%
    01:00 +6°C° 0 mm 4 mps 764 mmHg 72%
    02:00 +7°C° 0 mm 3 mps 764 mmHg 73%
    03:00 +7°C° 0 mm 3 mps 764 mmHg 73%
    04:00 +8°C° 0 mm 3 mps 764 mmHg 73%
    05:00 +8°C° 0 mm 3 mps 764 mmHg 73%
    06:00 +9°C° 0 mm 3 mps 764 mmHg 71%
    07:00 +10°C° 0 mm 4 mps 765 mmHg 69%
    08:00 +11°C° 0 mm 4 mps 765 mmHg 67%
    09:00 +12°C° 0 mm 4 mps 765 mmHg 64%
    10:00 +13°C° 0 mm 4 mps 765 mmHg 61%
    11:00 +13°C° 0 mm 5 mps 765 mmHg 58%
    12:00 +14°C° 0 mm 5 mps 765 mmHg 57%
    13:00 +14°C° 0 mm 5 mps 765 mmHg 56%
    14:00 +15°C° 0 mm 5 mps 764 mmHg 55%
    15:00 +14°C° 0 mm 5 mps 764 mmHg 58%
    16:00 +13°C° 0 mm 5 mps 764 mmHg 60%
    17:00 +12°C° 0 mm 5 mps 764 mmHg 63%
    18:00 +10°C° 0 mm 5 mps 764 mmHg 69%
    19:00 +10°C° 0 mm 4 mps 764 mmHg 75%
    20:00 +8°C° 0 mm 4 mps 764 mmHg 81%
    21:00 +8°C° 0 mm 4 mps 765 mmHg 80%
    22:00 +8°C° 0 mm 4 mps 765 mmHg 80%
    23:00 +7°C° 0 mm 4 mps 765 mmHg 79%

    24 April, Wednesday

    Time Temperature Precipitation Wind Pressure Humidity
    00:00 +9°C° 0 mm 3 mps 765 mmHg 77%
    01:00 +9°C° 0 mm 3 mps 764 mmHg 75%
    02:00 +9°C° 0 mm 3 mps 764 mmHg 73%
    03:00 +9°C° 0 mm 2 mps 764 mmHg 75%
    04:00 +9°C° 0 mm 2 mps 764 mmHg 77%
    05:00 +9°C° 0 mm 2 mps 764 mmHg 78%
    06:00 +12°C° 0 mm 2 mps 764 mmHg 73%
    07:00 +14°C° 0 mm 2 mps 765 mmHg 68%
    08:00 +16°C° 0 mm 2 mps 765 mmHg 63%
    09:00 +17°C° 0 mm 2 mps 765 mmHg 60%
    10:00 +19°C° 0 mm 3 mps 765 mmHg 58%
    11:00 +20°C° 0 mm 3 mps 765 mmHg 56%
    12:00 +20°C° 0 mm 3 mps 765 mmHg 57%
    13:00 +20°C° 0 mm 4 mps 765 mmHg 57%
    14:00 +20°C° 0 mm 4 mps 765 mmHg 58%
    15:00 +19°C° 0 mm 4 mps 764 mmHg 61%
    16:00 +18°C° 0 mm 4 mps 764 mmHg 65%
    17:00 +17°C° 0 mm 4 mps 764 mmHg 68%
    18:00 +16°C° 0 mm 3 mps 764 mmHg 74%
    19:00 +13°C° 0 mm 3 mps 765 mmHg 80%
    20:00 +12°C° 0 mm 3 mps 765 mmHg 86%
    21:00 +12°C° 0 mm 2 mps 765 mmHg 86%
    22:00 +12°C° 0 mm 2 mps 765 mmHg 86%
    23:00 +12°C° 0 mm 2 mps 765 mmHg 86%

    25 April, Thursday

    Time Temperature Precipitation Wind Pressure Humidity
    00:00 +12°C° 0 mm 2 mps 765 mmHg 87%
    01:00 +12°C° 0 mm 2 mps 765 mmHg 87%
    02:00 +12°C° 0 mm 2 mps 765 mmHg 88%
    03:00 +10°C° 0 mm 2 mps 765 mmHg 88%
    04:00 +10°C° 0 mm 2 mps 765 mmHg 88%
    05:00 +10°C° 0 mm 2 mps 765 mmHg 89%
    06:00 +13°C° 0 mm 2 mps 765 mmHg 83%
    07:00 +14°C° 0 mm 2 mps 765 mmHg 77%
    08:00 +16°C° 0 mm 2 mps 765 mmHg 71%
    09:00 +17°C° 0 mm 3 mps 765 mmHg 68%
    10:00 +18°C° 0 mm 3 mps 765 mmHg 65%
    11:00 +19°C° 0 mm 4 mps 765 mmHg 61%
    12:00 +19°C° 0 mm 4 mps 765 mmHg 62%
    13:00 +19°C° 0 mm 4 mps 765 mmHg 62%
    14:00 +19°C° 0 mm 5 mps 764 mmHg 62%
    15:00 +18°C° 0 mm 4 mps 764 mmHg 65%
    16:00 +17°C° 0 mm 4 mps 764 mmHg 69%
    17:00 +15°C° 0 mm 4 mps 764 mmHg 72%
    18:00 +14°C° 0 mm 3 mps 764 mmHg 78%
    19:00 +12°C° 0 mm 3 mps 764 mmHg 84%
    20:00 +11°C° 0 mm 3 mps 764 mmHg 91%
    21:00 +10°C° 0 mm 2 mps 764 mmHg 91%
    22:00 +10°C° 0 mm 2 mps 764 mmHg 90%
    23:00 +11°C° 0 mm 1 mps 764 mmHg 90%

    26 April, Friday

    Time Temperature Precipitation Wind Pressure Humidity
    00:00 +10°C° 0 mm 2 mps 763 mmHg 90%
    01:00 +10°C° 0 mm 2 mps 763 mmHg 90%
    02:00 +10°C° 0 mm 2 mps 763 mmHg 89%
    03:00 +10°C° 0 mm 2 mps 762 mmHg 89%
    04:00 +10°C° 0 mm 2 mps 762 mmHg 89%
    05:00 +10°C° 0 mm 2 mps 762 mmHg 89%
    06:00 +10°C° 0 mm 2 mps 762 mmHg 88%
    07:00 +12°C° 0 mm 2 mps 762 mmHg 87%
    08:00 +13°C° 0 mm 2 mps 762 mmHg 86%
    09:00 +14°C° 0 mm 2 mps 762 mmHg 80%
    10:00 +15°C° 0 mm 2 mps 762 mmHg 74%
    11:00 +16°C° 0 mm 3 mps 762 mmHg 68%
    12:00 +17°C° 0 mm 3 mps 761 mmHg 65%
    13:00 +18°C° 0 mm 3 mps 761 mmHg 63%
    14:00 +18°C° 0 mm 3 mps 761 mmHg 61%
    15:00 +17°C° 0 mm 3 mps 760 mmHg 64%
    16:00 +17°C° 0 mm 3 mps 760 mmHg 67%
    17:00 +16°C° 0 mm 3 mps 760 mmHg 70%
    18:00 +13°C° 0 mm 3 mps 760 mmHg 77%
    19:00 +13°C° 0 mm 2 mps 760 mmHg 84%
    20:00 +10°C° 0 mm 2 mps 760 mmHg 91%
    21:00 +11°C° 0 mm 1 mps 760 mmHg 90%
    22:00 +11°C° 0 mm 1 mps 760 mmHg 89%
    23:00 +10°C° 0 mm 1 mps 759 mmHg 88%
    Show more